• în Republica Moldova
  • Lista ţărilor
  • Pe 7 zile
  • Temperatura apei
  • Hartă satelitară
  • Meteo pe hartă
  • Widget-uri
  • user-avatar
    Intrare

    Meteo pe oră la Gomel

    Astăzi, 20 Octombrie, Sâmbătă

    Timp Temperatura Precipitaţii Vânt Presiune Umiditate
    00:00 +12°C° 0 mm 2 m/s 753 mmHg 91%
    01:00 +10°C° 0 mm 2 m/s 753 mmHg 93%
    02:00 +10°C° 0 mm 2 m/s 753 mmHg 95%
    03:00 +9°C° 0 mm 2 m/s 753 mmHg 95%
    04:00 +9°C° 0 mm 2 m/s 753 mmHg 95%
    05:00 +9°C° 0 mm 2 m/s 753 mmHg 95%
    06:00 +9°C° 0 mm 3 m/s 753 mmHg 93%
    07:00 +9°C° 0 mm 3 m/s 754 mmHg 91%
    08:00 +9°C° 0 mm 3 m/s 754 mmHg 87%
    09:00 +10°C° 0 mm 3 m/s 754 mmHg 80%
    10:00 +12°C° 0 mm 3 m/s 754 mmHg 74%
    11:00 +13°C° 0 mm 3 m/s 754 mmHg 68%
    12:00 +14°C° 0 mm 2 m/s 754 mmHg 65%
    13:00 +15°C° 0 mm 2 m/s 754 mmHg 61%
    14:00 +14°C° 0 mm 2 m/s 754 mmHg 59%
    15:00 +13°C° 0 mm 2 m/s 754 mmHg 62%
    16:00 +12°C° 0 mm 2 m/s 754 mmHg 65%
    17:00 +10°C° 0 mm 2 m/s 754 mmHg 68%
    18:00 +9°C° 0 mm 2 m/s 754 mmHg 69%
    19:00 +9°C° 0 mm 2 m/s 754 mmHg 71%
    20:00 +8°C° 0 mm 2 m/s 754 mmHg 72%
    21:00 +7°C° 0 mm 2 m/s 754 mmHg 73%
    22:00 +7°C° 0 mm 2 m/s 754 mmHg 74%
    23:00 +7°C° 0 mm 2 m/s 755 mmHg 75%

    Mâine, 21 Octombrie, Duminică

    Timp Temperatura Precipitaţii Vânt Presiune Umiditate
    00:00 +6°C° 0 mm 2 m/s 755 mmHg 76%
    01:00 +6°C° 0 mm 2 m/s 755 mmHg 78%
    02:00 +5°C° 0 mm 2 m/s 755 mmHg 79%
    03:00 +5°C° 0 mm 2 m/s 755 mmHg 80%
    04:00 +5°C° 0 mm 2 m/s 755 mmHg 82%
    05:00 +4°C° 0 mm 2 m/s 755 mmHg 83%
    06:00 +5°C° 0 mm 2 m/s 755 mmHg 81%
    07:00 +4°C° 0 mm 3 m/s 756 mmHg 79%
    08:00 +4°C° 0 mm 3 m/s 756 mmHg 78%
    09:00 +7°C° 0 mm 3 m/s 756 mmHg 71%
    10:00 +8°C° 0 mm 3 m/s 756 mmHg 65%
    11:00 +10°C° 0 mm 3 m/s 757 mmHg 58%
    12:00 +10°C° 0 mm 3 m/s 757 mmHg 56%
    13:00 +11°C° 0 mm 3 m/s 757 mmHg 54%
    14:00 +11°C° 0 mm 3 m/s 757 mmHg 52%
    15:00 +10°C° 0 mm 3 m/s 757 mmHg 57%
    16:00 +9°C° 0 mm 3 m/s 757 mmHg 63%
    17:00 +8°C° 0 mm 2 m/s 757 mmHg 68%
    18:00 +7°C° 0 mm 2 m/s 757 mmHg 71%
    19:00 +6°C° 0 mm 2 m/s 758 mmHg 75%
    20:00 +6°C° 0 mm 2 m/s 758 mmHg 78%
    21:00 +5°C° 0 mm 2 m/s 758 mmHg 80%
    22:00 +5°C° 0 mm 2 m/s 758 mmHg 82%
    23:00 +4°C° 0 mm 2 m/s 758 mmHg 84%

    Poimâine, 22 Octombrie, Luni

    Timp Temperatura Precipitaţii Vânt Presiune Umiditate
    00:00 +4°C° 0 mm 2 m/s 758 mmHg 86%
    01:00 +4°C° 0 mm 2 m/s 758 mmHg 87%
    02:00 +5°C° 0 mm 1 m/s 758 mmHg 89%
    03:00 +4°C° 0 mm 1 m/s 758 mmHg 89%
    04:00 +4°C° 0 mm 1 m/s 758 mmHg 90%
    05:00 +4°C° 0 mm 1 m/s 758 mmHg 91%
    06:00 +4°C° 0 mm 1 m/s 758 mmHg 89%
    07:00 +5°C° 0 mm 1 m/s 758 mmHg 87%
    08:00 +5°C° 0 mm 1 m/s 758 mmHg 85%
    09:00 +7°C° 0 mm 1 m/s 758 mmHg 77%
    10:00 +9°C° 0 mm 1 m/s 758 mmHg 69%
    11:00 +9°C° 0 mm 0 m/s 757 mmHg 61%
    12:00 +11°C° 0 mm 1 m/s 757 mmHg 58%
    13:00 +11°C° 0 mm 1 m/s 756 mmHg 54%
    14:00 +12°C° 0 mm 1 m/s 756 mmHg 51%
    15:00 +11°C° 0 mm 1 m/s 755 mmHg 55%
    16:00 +9°C° 0 mm 1 m/s 755 mmHg 59%
    17:00 +8°C° 0 mm 1 m/s 754 mmHg 64%
    18:00 +8°C° 0 mm 1 m/s 754 mmHg 65%
    19:00 +7°C° 0 mm 1 m/s 754 mmHg 67%
    20:00 +6°C° 0 mm 1 m/s 754 mmHg 68%
    21:00 +6°C° 0 mm 1 m/s 754 mmHg 70%
    22:00 +5°C° 0 mm 2 m/s 753 mmHg 71%
    23:00 +4°C° 0 mm 2 m/s 753 mmHg 72%

    23 Octombrie, Marţi

    Timp Temperatura Precipitaţii Vânt Presiune Umiditate
    00:00 +4°C° 0 mm 2 m/s 752 mmHg 74%
    01:00 +4°C° 0 mm 2 m/s 752 mmHg 76%
    02:00 +4°C° 0 mm 2 m/s 751 mmHg 78%
    03:00 +3°C° 0 mm 2 m/s 751 mmHg 81%
    04:00 +2°C° 0 mm 3 m/s 750 mmHg 84%
    05:00 +2°C° 0 mm 3 m/s 750 mmHg 87%
    06:00 +3°C° 0 mm 3 m/s 749 mmHg 87%
    07:00 +3°C° 0 mm 3 m/s 749 mmHg 87%
    08:00 +3°C° 0 mm 3 m/s 749 mmHg 87%
    09:00 +4°C° 0.1 mm 3 m/s 748 mmHg 86%
    10:00 +5°C° 0.1 mm 4 m/s 748 mmHg 84%
    11:00 +6°C° 0.1 mm 4 m/s 748 mmHg 83%
    12:00 +6°C° 0.1 mm 4 m/s 747 mmHg 79%
    13:00 +8°C° 0.1 mm 3 m/s 747 mmHg 74%
    14:00 +9°C° 0.1 mm 3 m/s 746 mmHg 70%
    15:00 +8°C° 0 mm 3 m/s 746 mmHg 70%
    16:00 +7°C° 0 mm 3 m/s 745 mmHg 70%
    17:00 +7°C° 0 mm 3 m/s 745 mmHg 70%
    18:00 +5°C° 0 mm 3 m/s 744 mmHg 70%
    19:00 +5°C° 0 mm 3 m/s 743 mmHg 69%
    20:00 +4°C° 0 mm 4 m/s 742 mmHg 68%
    21:00 +4°C° 0 mm 4 m/s 741 mmHg 69%
    22:00 +3°C° 0 mm 5 m/s 740 mmHg 69%
    23:00 +3°C° 0 mm 5 m/s 739 mmHg 70%

    24 Octombrie, Miercuri

    Timp Temperatura Precipitaţii Vânt Presiune Umiditate
    00:00 +3°C° 0.3 mm 6 m/s 738 mmHg 72%
    01:00 +3°C° 0.3 mm 7 m/s 737 mmHg 75%
    02:00 +3°C° 0.3 mm 7 m/s 735 mmHg 77%
    03:00 +4°C° 0.7 mm 7 m/s 734 mmHg 79%
    04:00 +4°C° 0.7 mm 7 m/s 732 mmHg 80%
    05:00 +4°C° 0.7 mm 7 m/s 731 mmHg 82%
    06:00 +4°C° 0.8 mm 7 m/s 730 mmHg 84%
    07:00 +4°C° 0.8 mm 6 m/s 729 mmHg 85%
    08:00 +4°C° 0.8 mm 6 m/s 728 mmHg 87%
    09:00 +5°C° 0.8 mm 6 m/s 728 mmHg 86%
    10:00 +6°C° 0.8 mm 5 m/s 728 mmHg 85%
    11:00 +6°C° 0.8 mm 5 m/s 728 mmHg 84%
    12:00 +6°C° 0.1 mm 5 m/s 728 mmHg 79%
    13:00 +6°C° 0.1 mm 5 m/s 728 mmHg 75%
    14:00 +6°C° 0.1 mm 5 m/s 728 mmHg 71%
    15:00 +6°C° 0 mm 5 m/s 729 mmHg 71%
    16:00 +5°C° 0 mm 5 m/s 729 mmHg 71%
    17:00 +5°C° 0 mm 4 m/s 730 mmHg 70%
    18:00 +4°C° 0 mm 4 m/s 730 mmHg 72%
    19:00 +4°C° 0 mm 4 m/s 730 mmHg 74%
    20:00 +3°C° 0 mm 4 m/s 730 mmHg 75%
    21:00 +3°C° 0 mm 4 m/s 730 mmHg 78%
    22:00 +1°C° 0 mm 4 m/s 730 mmHg 80%
    23:00 +1°C° 0 mm 4 m/s 730 mmHg 83%

    25 Octombrie, Joi

    Timp Temperatura Precipitaţii Vânt Presiune Umiditate
    00:00 +2°C° 0 mm 3 m/s 730 mmHg 84%
    01:00 +2°C° 0 mm 3 m/s 730 mmHg 85%
    02:00 +3°C° 0 mm 3 m/s 730 mmHg 86%
    03:00 +3°C° 0.1 mm 3 m/s 731 mmHg 87%
    04:00 +3°C° 0.1 mm 4 m/s 731 mmHg 88%
    05:00 +3°C° 0.1 mm 4 m/s 731 mmHg 90%
    06:00 +3°C° 0.3 mm 5 m/s 731 mmHg 87%
    07:00 +3°C° 0.3 mm 6 m/s 732 mmHg 84%
    08:00 +4°C° 0.3 mm 6 m/s 732 mmHg 81%
    09:00 +4°C° 0.1 mm 7 m/s 733 mmHg 77%
    10:00 +4°C° 0.1 mm 8 m/s 733 mmHg 72%
    11:00 +4°C° 0.1 mm 8 m/s 734 mmHg 68%
    12:00 +4°C° 0 mm 8 m/s 734 mmHg 67%
    13:00 +4°C° 0 mm 7 m/s 735 mmHg 65%
    14:00 +4°C° 0 mm 7 m/s 735 mmHg 64%
    15:00 +4°C° 0 mm 6 m/s 736 mmHg 66%
    16:00 +4°C° 0 mm 6 m/s 736 mmHg 68%
    17:00 +5°C° 0 mm 5 m/s 737 mmHg 70%
    18:00 +3°C° 0.1 mm 5 m/s 737 mmHg 71%
    19:00 +3°C° 0.1 mm 5 m/s 737 mmHg 71%
    20:00 +3°C° 0.1 mm 5 m/s 737 mmHg 72%
    21:00 +4°C° 0 mm 4 m/s 737 mmHg 74%
    22:00 +3°C° 0 mm 4 m/s 737 mmHg 75%
    23:00 +3°C° 0 mm 4 m/s 736 mmHg 77%
    Arată mai mult